Weather reports worldwide

Advertisment
Haparanda A, Sweden (2197): temperature & dewpoint: 30.06.2020 19:00:00 - 06.07.2020 19:00:00 (CEST)Haparanda A, Sweden (2197): wind speed & gusts: 30.06.2020 19:00:00 - 06.07.2020 19:00:00 (CEST)Haparanda A, Sweden (2197): wind direction: 30.06.2020 19:00:00 - 06.07.2020 19:00:00 (CEST)Haparanda A, Sweden (2197): reduced air pressure: 30.06.2020 19:00:00 - 06.07.2020 19:00:00 (CEST)Haparanda A, Sweden (2197): visibility: 30.06.2020 19:00:00 - 06.07.2020 19:00:00 (CEST)Haparanda A, Sweden (2197): precipitation: 30.06.2020 19:00:00 - 06.07.2020 19:00:00 (CEST)
Date & Time tt [°C] td [°C] ff [km/h] ff [kn] fx [km/h] fx [kn] dd ppp [hPa] vv [km] rr [mm]
06.07.2020 19:00:00 12,0 11,5 5 3 16 9 NNE 989,3 10 0,0
06.07.2020 18:00:00 12,5 11,6 7 4 19 11 NNE 988,9 4,1 0,0
06.07.2020 17:00:00 12,3 11,2 10 5 23 12 NNE 988,8 50 0,0
06.07.2020 16:00:00 12,5 11,7 4 2 18 10 NE 988,8 7 0,0
06.07.2020 15:00:00 13,5 11,0 6 3 17 9 NE 988,3 47 0,0
06.07.2020 14:00:00 14,5 10,5 9 5 18 10 NNE 988,1 48 0,0
06.07.2020 13:00:00 14,3 11,1 8 4 18 10 NNE 988,2 48 0,0
06.07.2020 12:00:00 12,3 10,5 9 5 20 11 NE 988,5 41 0,0
06.07.2020 11:00:00 14,4 9,8 8 4 19 11 N 988,4 50 0,0
06.07.2020 10:00:00 13,4 9,3 8 4 21 11 NNE 988,7 50 0,0
06.07.2020 09:00:00 12,6 8,5 12 7 26 14 NE 988,7 50 0,0
06.07.2020 08:00:00 11,9 9,1 10 5 24 13 NNE 988,9 49 0,0
06.07.2020 07:00:00 11,1 8,8 10 5 25 13 NE 989,3 50 0,0
06.07.2020 06:00:00 9,7 8,3 11 6 23 12 NE 989,9 50 0,0
06.07.2020 05:00:00 9,5 9,0 9 5 21 11 NNE 990,4 50 0,0
06.07.2020 04:00:00 8,7 8,6 7 4 14 8 NNE 991,4 50 0,0
06.07.2020 03:00:00 6,7 6,4 5 3 9 5 NNE 991,9 18 0,0
06.07.2020 02:00:00 7,4 7,1 4 2 8 4 E 992,5 40 0,0
06.07.2020 01:00:00 8,5 8,1 3 2 9 5 NNE 993,2 34 0,0
06.07.2020 00:00:00 9,3 8,8 3 1 7 4 NE 994,0 50 0,0
05.07.2020 23:00:00 9,3 9,0 0 0 5 3 N 994,7 50 0,0
05.07.2020 22:00:00 9,3 8,1 3 2 16 9 SW 995,1 50 0,0
05.07.2020 21:00:00 11,5 8,7 6 3 25 14 SW 995,4 50 0,0
05.07.2020 20:00:00 12,5 9,1 9 5 29 16 SW 995,8 50 0,0
05.07.2020 19:00:00 13,5 8,6 12 6 24 13 SSW 996,0 50 0,0
05.07.2020 18:00:00 15,1 8,8 7 4 20 11 SSW 996,0 50 0,0
05.07.2020 17:00:00 15,4 8,9 8 5 23 12 WSW 996,4 46 0,0
05.07.2020 16:00:00 13,1 8,2 8 4 24 13 WNW 996,7 50 0,0
05.07.2020 15:00:00 12,4 8,3 10 5 27 15 W 996,6 49 0,0
05.07.2020 14:00:00 12,0 9,0 9 5 27 14 WNW 995,9 48 0,0
05.07.2020 13:00:00 10,6 9,0 10 6 23 13 WNW 995,4 23 0,0
05.07.2020 12:00:00 10,9 9,7 10 5 25 13 WNW 995,0 12 0,0
05.07.2020 11:00:00 11,2 8,4 10 5 27 15 W 994,5 36 0,0
05.07.2020 10:00:00 12,5 10,0 9 5 22 12 WSW 993,9 50 0,0
05.07.2020 09:00:00 11,0 9,1 11 6 28 15 SSW 994,0 13 0,0
05.07.2020 08:00:00 12,3 9,3 9 5 20 11 SW 993,8 50 0,0
05.07.2020 07:00:00 11,5 9,7 9 5 21 11 SW 994,0 50 0,0
05.07.2020 06:00:00 9,7 8,8 6 3 13 7 WSW 994,1 50 0,0
05.07.2020 05:00:00 9,7 9,5 3 2 7 4 SW 994,5 29 0,0
05.07.2020 04:00:00 9,5 9,4 4 2 - - WNW 994,4 28 0,0
05.07.2020 03:00:00 9,3 9,2 5 3 10 5 W 994,6 27 0,0
05.07.2020 02:00:00 9,4 9,1 4 2 10 5 SSE 994,8 16 0,0
05.07.2020 01:00:00 9,7 9,4 3 2 13 7 SE 995,3 13 1,2
05.07.2020 00:00:00 10,1 9,9 3 2 10 6 NE 995,8 1,9 3,4
04.07.2020 23:00:00 10,0 9,7 3 1 8 4 WSW 996,3 9 0,1
04.07.2020 22:00:00 10,2 9,9 2 1 13 7 E 996,8 13 0,2
04.07.2020 21:00:00 10,5 10,2 5 3 11 6 NNE 997,1 14 0,7
04.07.2020 20:00:00 10,7 10,1 3 2 21 11 W 998,0 7 3,2
04.07.2020 19:00:00 12,1 11,3 5 3 16 9 SE 998,7 11 1,2
04.07.2020 18:00:00 12,2 10,9 8 4 22 12 SE 999,5 12 0,6
04.07.2020 17:00:00 14,0 11,0 7 4 19 10 ESE 999,7 46 0,0
04.07.2020 16:00:00 14,2 9,8 5 3 17 9 ESE 1000,5 50 0,0
04.07.2020 15:00:00 15,1 8,3 3 2 10 6 SSE 1001,0 47 0,0
04.07.2020 14:00:00 14,9 7,7 4 2 12 7 SSW 1001,3 50 0,0
04.07.2020 13:00:00 15,6 7,6 9 5 18 10 S 1001,7 44 0,0
04.07.2020 12:00:00 15,3 8,1 7 4 22 12 S 1002,0 42 0,0
04.07.2020 11:00:00 13,7 8,7 11 6 25 13 SSW 1002,5 45 0,0
04.07.2020 10:00:00 14,3 8,7 13 7 26 14 SSW 1002,5 41 0,0
04.07.2020 09:00:00 14,5 9,1 10 6 27 15 SSW 1002,2 44 0,0
04.07.2020 08:00:00 13,6 8,9 12 7 23 13 SW 1001,8 49 0,0
04.07.2020 07:00:00 11,1 8,3 11 6 26 14 SW 1001,8 50 0,0
04.07.2020 06:00:00 11,0 8,0 11 6 31 17 SW 1001,4 50 0,0
04.07.2020 05:00:00 10,7 8,1 14 8 35 19 SW 1001,1 50 0,0
04.07.2020 04:00:00 10,5 8,4 15 8 36 19 SW 1000,5 50 0,0
04.07.2020 03:00:00 10,4 7,8 17 9 42 23 SSW 1000,2 50 0,0
04.07.2020 02:00:00 10,2 7,4 16 9 40 21 SSW 1000,1 50 0,0
04.07.2020 01:00:00 10,3 7,5 19 10 45 24 SSW 1000,1 50 0,0
04.07.2020 00:00:00 10,3 7,2 18 10 - - SSW 1000,1 50 0,0
03.07.2020 23:00:00 10,3 6,3 20 11 42 23 SSW 1000,3 50 0,0
03.07.2020 22:00:00 9,9 6,4 20 11 40 22 SSW 1000,4 50 0,0
03.07.2020 21:00:00 10,3 6,8 17 9 39 21 SSW 1000,3 50 0,0
03.07.2020 20:00:00 10,6 7,8 18 10 41 22 SSW 1000,4 50 0,0
03.07.2020 19:00:00 11,1 8,3 16 9 39 21 S 1000,0 50 0,0
03.07.2020 18:00:00 11,4 9,3 14 8 45 24 S 1000,0 50 0,0
03.07.2020 17:00:00 11,8 10,2 20 11 41 22 S 999,8 50 0,3
03.07.2020 16:00:00 12,2 11,4 16 9 37 20 S 999,4 20 0,1
03.07.2020 15:00:00 13,1 12,2 16 9 40 21 S 999,6 46 1,0
03.07.2020 14:00:00 11,7 11,2 9 5 22 12 NE 999,3 37 1,8
03.07.2020 13:00:00 12,9 8,8 11 6 31 17 ENE 999,7 50 0,0
03.07.2020 12:00:00 12,2 9,0 10 6 27 14 ENE 1000,0 50 0,1
03.07.2020 11:00:00 11,6 8,3 11 6 29 16 E 1000,4 34 0,0
03.07.2020 10:00:00 12,5 8,2 12 7 24 13 ENE 1000,6 50 0,0
03.07.2020 09:00:00 12,5 7,0 7 4 21 12 ENE 1001,0 50 0,0
03.07.2020 08:00:00 11,8 6,3 8 4 22 12 ENE 1001,6 50 0,0
03.07.2020 07:00:00 11,7 7,6 8 5 20 11 NE 1002,0 50 0,0
03.07.2020 06:00:00 11,2 8,2 5 3 13 7 NE 1002,4 50 0,0
03.07.2020 05:00:00 11,1 8,5 5 3 13 7 E 1002,8 47 0,0
03.07.2020 04:00:00 11,0 8,9 5 3 16 9 NNE 1002,7 50 0,0
03.07.2020 03:00:00 10,6 9,5 3 2 12 6 ENE 1003,2 50 0,0
03.07.2020 02:00:00 10,4 9,4 3 2 - - SW 1003,1 50 0,0
03.07.2020 01:00:00 9,1 8,3 4 2 8 4 S 1003,3 50 0,0
03.07.2020 00:00:00 8,8 7,8 2 1 9 5 S 1003,3 50 0,0
02.07.2020 23:00:00 9,0 7,8 5 3 11 6 SW 1003,2 50 0,0
02.07.2020 22:00:00 10,7 7,9 5 3 18 10 SSW 1003,0 50 0,0
02.07.2020 21:00:00 12,8 7,2 6 4 24 13 SW 1002,7 50 0,0
02.07.2020 20:00:00 13,5 7,5 11 6 36 20 SW 1002,5 50 0,0
02.07.2020 19:00:00 14,0 7,5 16 9 37 20 SSW 1002,1 50 0,0
02.07.2020 18:00:00 14,9 8,1 18 10 34 18 SSW 1001,7 50 0,0
02.07.2020 17:00:00 16,1 6,5 14 7 40 22 SSW 1001,3 42 0,0
02.07.2020 16:00:00 16,9 5,4 15 8 32 17 SSW 1000,9 48 0,0
02.07.2020 15:00:00 17,0 5,6 13 7 30 16 SSW 1000,4 45 0,0
02.07.2020 14:00:00 16,7 6,2 15 8 35 19 SSW 1000,0 45 0,0
02.07.2020 13:00:00 16,2 4,9 14 8 31 17 SSW 999,5 44 0,0
02.07.2020 12:00:00 15,9 4,9 12 6 31 17 SW 999,0 30 0,0
02.07.2020 11:00:00 15,5 6,8 11 6 29 16 WSW 998,4 49 0,0
02.07.2020 10:00:00 15,1 6,9 13 7 26 14 SW 997,7 46 0,0
02.07.2020 09:00:00 14,4 5,7 11 6 29 16 SW 996,9 40 0,0
02.07.2020 08:00:00 13,0 4,9 9 5 21 11 WSW 996,1 47 0,0
02.07.2020 07:00:00 12,1 5,3 6 3 19 10 WSW 995,3 50 0,0
02.07.2020 06:00:00 10,2 4,8 7 4 22 12 W 995,0 50 0,0
02.07.2020 05:00:00 9,2 4,0 8 4 21 12 WSW 994,5 50 0,0
02.07.2020 04:00:00 8,9 3,7 7 4 21 11 W 994,0 50 0,0
02.07.2020 03:00:00 9,4 3,8 8 5 21 12 W 993,4 50 0,0
02.07.2020 02:00:00 9,9 4,1 7 4 19 10 W 992,7 50 0,0
02.07.2020 01:00:00 10,9 3,7 7 4 20 11 WSW 992,0 50 0,0
02.07.2020 00:00:00 12,0 4,7 7 4 21 11 WSW 991,4 50 0,0
01.07.2020 23:00:00 12,9 5,8 8 4 23 12 W 991,0 50 0,0
01.07.2020 22:00:00 14,0 7,7 7 4 21 12 WSW 990,0 50 0,0
01.07.2020 21:00:00 15,4 10,2 10 5 22 12 SW 989,4 50 0,0
01.07.2020 20:00:00 14,9 11,9 10 6 - - SSW 989,4 50 0,0
01.07.2020 19:00:00 14,4 10,6 10 5 24 13 SSW 989,3 50 0,0
01.07.2020 18:00:00 14,2 10,2 8 5 26 14 SSW 988,9 50 0,0
01.07.2020 17:00:00 13,9 9,7 9 5 19 11 SSW 988,4 50 0,0
01.07.2020 16:00:00 16,4 9,8 5 3 22 12 NW 987,7 47 0,0
01.07.2020 15:00:00 14,3 9,7 9 5 21 12 NW 987,4 48 0,0
01.07.2020 14:00:00 12,4 9,0 6 3 25 13 WNW 986,9 50 0,0
01.07.2020 13:00:00 12,3 9,7 9 5 23 12 WNW 986,0 44 0,0
01.07.2020 12:00:00 10,6 8,7 9 5 23 12 W 985,3 50 0,0
01.07.2020 11:00:00 10,4 9,5 6 4 19 10 WNW 984,3 50 0,0
01.07.2020 10:00:00 10,0 9,5 8 5 20 11 WNW 983,5 50 0,0
01.07.2020 09:00:00 9,3 9,0 7 4 21 11 NW 982,9 46 0,2
01.07.2020 08:00:00 9,4 8,9 8 4 20 11 WNW 982,4 19 0,6
01.07.2020 07:00:00 9,9 9,6 7 4 17 9 NW 981,8 15 0,9
01.07.2020 06:00:00 10,2 10,0 7 4 22 12 NW 981,6 12 1,0
01.07.2020 05:00:00 10,4 10,1 9 5 24 13 NW 981,3 12 0,9
01.07.2020 04:00:00 11,4 11,1 8 4 21 11 NW 981,1 10 1,2
01.07.2020 03:00:00 13,1 12,8 10 5 19 10 NW 981,1 4,1 4,6
01.07.2020 02:00:00 13,7 13,4 4 2 9 5 NNW 981,3 3,6 1,1
01.07.2020 01:00:00 13,7 13,4 3 2 7 4 N 981,9 12 0,0
01.07.2020 00:00:00 13,5 13,1 3 2 6 3 NW 982,5 - 0,0
30.06.2020 23:00:00 14,1 13,5 4 2 - - N 983,0 21 0,0
30.06.2020 22:00:00 15,1 14,0 3 1 9 5 N 984,2 49 0,0
30.06.2020 21:00:00 15,9 13,9 3 2 14 7 E 984,8 50 0,0
30.06.2020 20:00:00 16,6 13,9 4 2 21 11 ESE 985,5 50 0,0
30.06.2020 19:00:00 17,7 14,0 9 5 22 12 ESE 986,3 44 0,0

tt = temperature
td = dewpoint
ff = wind speed
fx = gusts
dd = wind direction
ppp = reduced air pressure
vv = visibility
rr = precipitation

Next stations